Wetbulb
54.02 54.03 54.18 54.14 54.69 54.29 54.35 54.41 54.44 54.59 54.94 55.08 55.20 55.34 55.49 55.59 55.22 54.27 51.89 57.34 60.92 64.27 62.41 63.21 64.82 63.32 64.76 62.60 61.83 59.05 51.12 49.46 51.53 52.52 54.33 58.46 56.66 59.35 60.82 59.10 60.52 60.85 60.66 62.38 63.92
53.20 53.38 53.44 53.64 54.07 54.25 54.02 54.14 54.08 54.34 54.36 54.76 54.92 54.77 55.30 55.80 51.99 51.41 58.38 65.11 65.60 65.74 56.21 56.08 56.78 59.92 58.86 58.61 59.12 54.89 50.97 51.22 55.32 56.28 56.11 57.59 57.62 58.21 58.43 58.76 58.91 59.98 62.05 63.27 63.53
53.03 52.99 53.17 53.61 53.52 54.29 54.15 54.02 53.97 54.23 54.21 54.30 54.45 54.67 55.42 54.82 50.59 51.28 62.16 65.38 65.95 64.07 55.40 56.65 57.68 58.88 55.25 57.44 57.45 56.37 52.31 54.92 56.32 58.18 58.51 57.43 57.49 59.36 57.73 56.44 58.71 58.53 60.23 62.00 63.05
53.05 52.97 53.08 53.65 53.93 53.84 53.78 53.89 53.98 54.22 54.30 54.29 54.35 54.50 55.28 52.95 43.62 55.62 62.07 61.16 61.20 57.45 54.38 53.07 52.92 53.30 54.82 53.18 55.94 54.05 57.15 57.12 58.02 59.04 58.64 57.40 58.99 58.06 58.74 58.80 61.61 62.18 62.52 61.99 62.44
52.64 52.75 52.80 53.07 53.37 53.63 54.19 53.75 53.76 53.94 54.06 54.03 54.17 54.21 52.48 47.26 48.64 57.69 63.59 62.59 57.27 55.94 52.90 51.62 50.34 51.10 49.96 54.30 55.39 53.59 54.53 57.01 58.77 59.07 58.66 59.23 57.96 58.23 58.56 61.24 62.10 62.60 62.67 62.44 62.61
53.37 53.27 52.92 52.80 53.07 53.51 54.20 54.32 54.16 54.20 53.60 53.91 54.01 53.86 49.50 41.36 53.44 55.25 56.70 56.07 55.78 55.83 55.46 56.14 53.81 54.16 52.29 52.30 53.41 55.88 55.33 55.71 57.08 57.36 57.97 56.48 56.96 57.85 59.35 61.75 61.21 61.90 61.92 62.22 62.40
53.68 53.79 53.36 53.48 53.59 53.51 54.02 53.95 53.97 54.23 53.72 54.19 54.24 53.16 47.55 45.64 53.34 54.28 54.07 53.85 55.78 55.29 53.49 55.95 57.95 54.41 54.71 51.67 55.19 55.38 53.36 55.32 55.92 56.34 56.32 57.80 54.93 55.32 59.24 60.27 59.40 60.62 61.80 62.04 62.58
53.64 53.35 53.10 53.00 53.44 54.02 54.39 54.09 53.87 53.98 54.25 54.86 54.77 52.32 44.25 53.32 54.83 53.54 53.89 52.41 53.21 53.54 53.31 54.53 55.55 53.16 53.30 54.55 53.17 51.66 52.55 49.59 54.43 56.05 56.76 56.11 50.68 56.67 59.10 58.65 58.61 59.96 60.75 61.52 62.15
53.37 53.24 52.79 52.77 52.71 53.15 53.82 53.67 54.11 54.33 54.87 54.82 52.34 50.16 45.26 56.39 51.24 53.37 52.78 49.57 50.79 51.70 52.99 54.17 53.39 51.08 51.56 49.27 47.75 49.74 46.84 48.04 50.42 55.27 54.72 54.97 52.17 56.84 59.10 58.56 58.43 59.40 59.32 60.00 60.68
53.08 52.97 53.10 53.06 52.81 53.12 52.83 52.97 53.82 54.02 54.97 55.08 53.85 47.10 50.33 48.11 50.37 52.20 53.96 53.00 49.47 49.08 48.55 49.73 49.18 46.34 47.36 46.10 41.59 44.38 45.36 47.71 48.26 52.79 54.05 52.87 52.67 56.11 58.04 57.91 58.14 58.53 59.05 59.25 60.17
52.48 52.81 53.06 53.04 53.30 52.81 51.57 52.64 48.84 47.76 51.24 48.34 48.64 47.64 48.84 51.21 51.67 48.75 50.60 49.18 50.71 49.69 43.64 47.33 44.11 42.15 44.60 46.91 47.52 48.13 47.82 46.66 50.61 52.96 51.82 51.96 52.36 54.71 57.29 57.60 57.33 58.26 58.15 59.11 60.37
52.25 52.23 52.73 52.81 52.65 52.60 51.25 48.85 48.52 49.18 41.81 47.80 47.15 46.71 48.12 48.66 44.02 46.70 50.04 44.56 44.59 43.11 46.21 43.94 41.99 46.70 47.71 47.44 46.51 46.50 46.18 46.61 50.15 51.56 51.37 51.68 51.93 55.47 56.89 57.01 57.80 57.97 58.36 59.04 60.37
52.38 52.46 52.56 52.07 52.00 51.68 51.24 49.69 53.21 51.61 41.98 43.68 46.33 45.56 46.36 48.04 44.15 44.65 47.42 45.06 41.81 41.17 43.20 41.39 43.96 47.75 46.95 45.54 45.02 45.88 45.16 46.46 46.44 49.33 51.33 50.99 49.87 52.98 55.70 57.40 58.24 58.74 59.39 60.21 59.95
52.26 52.11 52.09 51.53 48.85 51.34 48.69 52.39 52.76 52.65 36.02 39.56 42.52 45.70 47.23 46.83 43.50 49.10 50.04 45.99 42.41 39.22 41.60 42.51 46.64 44.72 45.49 44.69 45.61 43.32 47.73 47.00 46.91 46.15 43.64 50.42 42.73 50.95 53.66 54.95 56.91 57.84 58.60 58.83 59.29
52.02 52.18 51.81 50.79 50.47 49.02 50.65 53.30 52.96 48.83 24.31 42.36 43.41 51.63 48.79 46.01 47.21 46.93 52.32 47.35 40.63 40.53 40.87 38.69 42.27 43.73 42.50 45.24 47.35 44.86 48.05 47.48 46.97 46.04 46.55 46.38 44.38 47.68 52.79 52.13 54.44 56.68 58.03 59.00 59.68
51.89 51.97 51.54 52.25 52.04 52.83 53.30 52.58 49.39 33.42 24.36 36.84 42.41 42.77 42.49 44.17 44.00 47.56 47.55 49.63 47.67 42.57 42.57 40.91 44.80 44.15 45.66 46.67 47.16 49.08 46.69 46.52 47.08 46.41 40.94 45.94 44.91 45.06 48.70 51.65 53.33 55.88 56.80 58.07 59.87
51.48 51.05 50.09 52.81 48.33 53.78 52.88 47.52 32.79 26.89 38.60 34.80 37.10 40.32 39.82 39.56 41.11 43.20 42.07 41.65 39.93 36.27 37.50 40.99 40.75 43.17 45.04 43.76 47.09 46.28 45.73 39.26 37.97 38.73 38.53 46.95 44.73 46.81 51.75 54.01 54.87 55.43 57.18 58.82 60.90
50.10 49.47 51.76 53.73 54.29 53.79 49.03 38.75 26.70 34.97 35.33 40.37 39.01 39.23 36.18 38.78 38.81 39.63 40.02 37.76 41.59 40.11 37.41 34.52 34.64 40.39 44.08 43.36 43.49 44.48 45.42 40.15 33.41 35.95 39.68 45.61 41.82 46.29 53.45 55.71 56.76 57.19 58.60 59.91 61.18
48.52 54.03 52.58 53.77 54.43 52.74 43.77 33.26 33.06 36.05 38.80 37.69 38.58 35.51 36.16 38.73 38.50 39.04 37.65 37.68 40.22 42.07 34.72 33.73 36.16 45.15 43.64 45.57 46.02 44.35 41.84 47.48 43.01 44.08 40.77 44.08 47.79 51.39 53.91 54.98 56.05 56.84 58.59 60.07 62.96
49.02 51.04 51.50 54.42 54.83 50.02 40.41 34.82 36.89 40.69 40.72 39.66 32.55 34.47 32.66 35.60 34.44 35.60 36.88 40.51 40.23 42.25 43.04 37.51 32.35 42.39 45.44 44.45 45.79 45.63 47.97 41.41 43.88 35.79 35.84 41.81 44.66 46.49 52.29 54.01 55.49 56.38 57.89 59.80 63.20
50.00 46.99 51.89 55.10 53.88 45.69 36.53 36.84 39.38 42.01 42.30 38.30 36.10 35.04 35.78 34.72 36.79 34.92 35.41 39.78 41.88 40.99 42.71 40.24 36.86 37.74 43.76 41.46 41.09 43.76 42.57 44.78 46.24 43.96 38.80 38.07 43.01 55.06 53.91 54.63 55.41 57.10 57.69 59.95 62.75
49.18 42.70 52.13 53.63 42.54 42.73 37.76 39.31 41.13 40.86 42.93 40.39 40.45 38.20 35.85 37.35 35.39 35.81 36.54 38.41 43.63 42.40 37.49 41.17 37.30 35.01 38.83 45.66 46.11 46.94 44.48 45.35 41.78 40.84 43.85 43.60 44.27 55.80 55.73 55.33 57.12 57.20 57.91 61.61 63.14
46.30 46.49 53.26 51.34 37.70 37.35 39.45 39.95 41.25 39.64 40.58 40.85 38.62 40.08 40.93 36.60 33.30 35.93 37.50 42.25 43.74 41.25 39.22 40.35 37.09 32.55 36.17 41.54 45.79 43.94 45.96 47.26 47.59 48.87 43.70 41.04 44.32 55.32 54.38 55.37 56.67 57.90 57.13 61.83 62.24
47.12 41.25 45.85 47.36 45.11 38.72 36.93 37.39 37.57 42.67 41.39 41.46 39.81 41.25 36.64 37.04 39.14 35.54 36.75 39.28 42.22 42.78 43.31 42.25 36.99 34.40 31.73 36.07 39.20 39.46 44.66 46.38 46.62 42.99 43.87 45.26 46.88 50.45 52.99 54.95 56.72 58.64 61.05 61.74 62.07
47.68 42.82 44.55 39.30 39.37 39.61 38.73 38.06 36.52 36.89 41.30 41.58 38.54 38.99 37.39 33.97 35.46 35.69 38.52 38.38 40.13 41.51 42.22 40.56 32.59 35.83 37.41 38.16 38.44 38.74 40.32 45.04 44.96 47.21 43.98 46.88 48.22 50.60 54.37 56.58 59.00 61.47 61.94 61.05 61.35
44.22 41.53 43.54 40.13 41.26 39.15 37.87 36.82 36.43 37.98 38.00 37.18 36.70 38.08 38.09 35.17 36.05 33.84 37.78 38.44 37.27 41.25 39.72 40.02 33.39 36.78 34.81 38.36 36.93 35.61 40.17 43.96 46.39 46.71 48.26 48.98 49.16 53.58 55.39 55.77 58.66 59.88 60.27 60.55 60.61
47.64 47.27 42.21 39.65 39.44 37.12 36.81 35.94 36.47 38.61 39.94 40.34 39.56 37.75 36.82 39.12 42.14 42.23 42.82 42.57 41.68 39.20 38.99 37.65 36.30 36.02 32.15 37.53 36.10 33.35 41.37 44.61 47.30 48.97 49.20 46.89 51.34 54.47 52.97 53.73 56.74 59.73 60.72 60.94 61.44
MSLP
1020.49 1020.09 1019.76 1019.53 1019.22 1018.92 1018.71 1018.13 1017.87 1017.44 1016.68 1016.30 1015.91 1015.93 1015.26 1014.92 1014.20 1012.56 1010.92 1008.95 1008.43 1008.69 1008.66 1008.30 1007.94 1007.23 1007.04 1006.92 1006.44 1006.39 1005.67 1004.08 1002.76 1001.46 1000.09 999.11 998.53 998.30 998.57 998.66 998.88 999.36 999.59 999.73 999.80
1020.41 1020.07 1019.91 1019.48 1019.18 1018.61 1018.19 1018.00 1017.82 1017.29 1016.97 1016.50 1016.12 1015.68 1014.81 1014.89 1013.73 1011.29 1008.50 1008.31 1008.22 1008.45 1008.41 1007.94 1007.34 1007.13 1006.30 1005.99 1006.06 1005.77 1004.55 1003.48 1002.65 1001.57 1000.32 999.34 998.60 998.25 998.79 999.08 999.52 999.69 999.49 999.43 999.26
1020.48 1020.12 1019.62 1019.30 1018.83 1018.46 1018.22 1017.94 1017.54 1017.13 1016.69 1016.34 1015.97 1015.29 1014.88 1014.73 1012.26 1007.61 1008.00 1007.35 1007.72 1007.66 1007.68 1007.15 1006.67 1006.28 1005.74 1005.46 1005.12 1004.73 1003.27 1003.03 1001.94 1001.27 1000.37 999.59 998.85 998.43 998.31 998.94 999.09 999.01 999.06 999.04 999.01
1020.41 1020.03 1019.80 1019.42 1018.98 1018.71 1018.34 1017.75 1017.26 1016.72 1016.52 1016.26 1016.07 1015.85 1015.37 1014.77 1010.56 1007.20 1007.67 1007.62 1007.96 1007.66 1007.46 1007.15 1006.64 1005.61 1004.90 1004.49 1004.25 1003.57 1002.86 1002.40 1001.57 1000.98 1000.26 999.55 999.01 998.43 998.19 998.40 999.37 998.84 998.69 998.86 999.21
1020.32 1019.88 1019.47 1019.06 1018.68 1018.25 1017.79 1017.43 1017.01 1016.56 1016.28 1015.98 1015.96 1015.82 1014.85 1012.05 1008.44 1007.19 1007.34 1007.37 1007.52 1007.64 1007.17 1006.71 1006.24 1005.62 1004.28 1003.76 1003.39 1001.93 1001.96 1001.66 1001.00 1000.35 999.90 999.61 998.85 998.52 998.13 998.26 998.33 998.41 998.32 998.34 998.53
1020.34 1019.88 1019.41 1018.91 1018.42 1017.91 1017.47 1017.03 1016.44 1016.31 1016.17 1015.79 1015.52 1015.54 1014.65 1011.23 1007.81 1006.75 1006.60 1006.64 1006.72 1005.98 1005.94 1005.92 1005.41 1005.09 1004.01 1003.26 1002.24 1001.78 1001.33 1000.59 1000.14 999.59 999.16 998.95 998.40 998.58 998.25 998.14 997.80 997.84 997.81 998.04 997.93
1020.09 1019.64 1019.13 1018.60 1018.08 1017.50 1016.90 1016.30 1015.85 1015.50 1015.35 1015.22 1015.05 1014.78 1013.10 1009.83 1007.88 1006.92 1006.92 1006.56 1006.20 1005.67 1005.35 1004.78 1004.55 1004.66 1003.76 1002.41 1002.18 1001.58 1000.82 999.88 998.96 999.14 998.57 999.09 997.26 997.26 997.78 997.73 997.33 997.50 997.17 997.28 997.37
1020.21 1019.68 1019.10 1018.47 1017.79 1017.10 1016.33 1015.53 1014.84 1014.80 1014.67 1014.24 1014.36 1013.98 1011.06 1008.15 1007.05 1007.25 1006.82 1006.36 1005.98 1005.98 1005.89 1005.61 1004.85 1004.01 1003.12 1002.85 1002.17 1001.42 1000.79 998.75 998.64 998.97 998.03 998.90 995.73 996.91 997.21 997.12 996.87 996.88 996.66 996.58 996.59
1020.21 1019.71 1019.14 1018.44 1017.70 1016.94 1016.17 1015.25 1014.21 1013.47 1013.61 1013.58 1013.50 1012.24 1008.43 1006.13 1006.59 1006.40 1006.12 1005.67 1005.21 1005.15 1005.19 1005.45 1005.28 1004.47 1003.69 1002.52 1001.90 1000.53 999.24 998.52 998.11 998.45 998.11 997.56 995.80 996.26 996.61 996.39 996.02 996.41 996.52 996.32 996.28
1020.16 1019.57 1018.91 1018.18 1017.44 1016.66 1015.85 1014.41 1012.40 1013.05 1012.15 1011.79 1011.43 1010.50 1007.00 1005.75 1004.91 1005.18 1005.08 1005.02 1004.92 1005.03 1004.80 1004.72 1004.73 1004.24 1003.25 1001.51 999.14 999.49 998.93 997.58 997.85 997.60 997.02 996.40 995.72 995.37 995.58 995.30 995.07 995.31 995.54 995.81 995.75
1019.94 1019.30 1018.67 1017.92 1017.13 1016.26 1015.44 1012.94 1010.81 1011.19 1011.08 1009.34 1008.03 1007.35 1005.78 1005.33 1004.80 1004.69 1004.66 1004.62 1004.69 1004.74 1003.97 1003.81 1003.88 1001.65 999.22 1000.10 999.63 999.46 998.38 997.65 997.18 996.89 996.52 995.96 995.61 994.79 994.78 994.43 994.44 994.67 995.01 995.18 995.10
1019.71 1019.01 1018.32 1017.52 1016.67 1015.85 1015.50 1012.87 1011.28 1011.26 1009.67 1008.78 1007.49 1006.29 1005.74 1005.58 1004.58 1004.37 1004.71 1004.52 1004.32 1003.90 1003.82 1003.41 1001.10 998.25 1001.53 1000.27 999.88 998.94 997.96 997.17 996.82 996.43 995.97 995.23 994.61 994.03 994.24 993.84 993.64 993.80 994.16 994.33 994.50
1019.55 1018.83 1018.07 1017.27 1016.28 1014.95 1013.57 1011.73 1011.42 1011.01 1009.69 1007.21 1004.82 1004.68 1003.95 1003.76 1003.40 1003.55 1004.00 1003.88 1003.77 1003.41 1002.92 1002.04 998.65 1001.68 1000.16 1000.04 999.06 997.97 997.46 997.22 996.63 996.93 995.60 995.36 994.35 993.80 993.33 993.11 993.21 993.07 993.18 993.58 994.03
1019.49 1018.60 1017.73 1016.82 1016.23 1013.80 1012.34 1011.61 1011.10 1010.88 1009.03 1003.68 1002.28 1002.49 1002.58 1002.59 1002.45 1002.55 1002.39 1003.05 1003.16 1002.87 1002.77 1001.60 1000.74 999.98 999.45 998.54 998.31 996.99 997.14 997.34 996.68 996.72 995.01 995.83 994.04 993.17 993.30 992.81 992.61 992.45 992.52 992.77 993.19
1019.17 1018.21 1017.21 1017.07 1015.71 1013.35 1012.65 1011.89 1011.28 1011.54 1008.36 1003.40 1003.07 1002.67 1002.15 1002.28 1002.17 1001.58 1001.84 1002.15 1002.41 1002.54 1003.14 1000.10 999.99 999.58 998.57 996.10 998.13 995.82 998.07 996.68 996.37 995.97 995.74 995.34 994.85 990.63 992.87 991.92 991.61 991.62 991.64 991.89 992.14
1018.89 1018.07 1017.35 1014.89 1014.76 1013.72 1013.24 1012.85 1012.27 1011.75 1008.23 1006.12 1005.33 1003.66 1003.40 1003.25 1003.31 1002.03 1001.82 1002.12 1002.01 1002.26 1002.12 1000.51 1000.38 999.41 997.54 998.02 997.35 996.97 997.12 996.82 996.32 995.52 994.54 993.58 994.66 990.32 992.03 991.36 991.02 991.00 990.86 990.85 991.36
1018.59 1017.88 1017.43 1015.93 1014.27 1013.51 1013.84 1012.92 1012.78 1010.77 1008.81 1007.31 1005.77 1004.43 1003.67 1003.00 1002.44 1002.20 1002.13 1002.15 1002.04 1002.32 1001.79 1000.79 1000.00 999.20 998.57 997.40 996.80 996.59 996.22 995.80 995.56 994.42 992.70 993.63 993.20 990.45 991.00 990.47 990.32 990.23 990.13 990.25 990.64
1018.12 1017.32 1016.21 1014.68 1014.06 1013.90 1014.26 1013.75 1011.95 1008.56 1007.61 1006.82 1006.02 1005.09 1004.24 1003.49 1002.87 1002.37 1002.48 1002.38 1001.92 1002.20 1002.78 1002.28 999.60 998.53 997.76 996.51 995.89 995.55 995.03 994.18 993.01 992.50 992.49 993.54 991.17 989.80 989.60 989.41 989.44 989.43 989.63 989.30 989.98
1017.52 1015.19 1014.64 1013.96 1014.14 1014.09 1014.28 1012.99 1009.83 1008.93 1008.32 1007.69 1007.03 1006.51 1005.39 1004.54 1004.27 1003.50 1002.54 1002.94 1002.56 1003.83 1004.19 1003.37 1000.58 998.63 997.36 996.69 995.94 994.29 994.27 993.40 993.74 992.61 992.18 990.70 989.48 988.93 988.24 988.27 988.45 988.71 989.29 989.79 990.84
1017.55 1015.31 1013.34 1013.81 1014.30 1014.06 1013.58 1012.03 1009.97 1009.11 1008.68 1008.53 1008.26 1008.91 1006.83 1005.54 1006.10 1005.10 1003.74 1004.44 1003.93 1004.53 1005.28 1004.84 1002.85 999.64 997.22 996.18 995.11 994.08 993.65 993.55 992.28 992.18 991.08 989.98 988.89 987.18 986.84 987.24 987.77 988.47 989.02 989.67 990.90
1016.67 1013.80 1013.27 1013.66 1013.73 1013.82 1013.12 1011.44 1009.91 1009.42 1008.62 1008.27 1008.37 1007.92 1007.88 1007.59 1006.09 1005.46 1005.08 1004.53 1004.91 1004.74 1004.92 1005.01 1004.30 1000.21 998.06 994.95 994.11 993.74 992.65 992.40 992.39 991.69 990.83 990.02 988.27 986.78 986.97 986.94 987.28 987.78 988.69 989.37 990.77
1015.90 1013.36 1012.91 1012.99 1013.51 1013.64 1012.71 1011.71 1010.58 1008.89 1008.10 1007.81 1007.83 1007.88 1008.50 1007.56 1006.94 1006.15 1004.69 1005.04 1004.91 1005.15 1004.66 1004.68 1004.76 1001.59 998.69 995.81 994.54 993.49 992.33 991.88 991.02 990.72 990.67 989.72 988.21 987.03 987.12 987.08 987.35 987.40 987.97 988.98 990.67
1015.86 1013.22 1012.80 1013.02 1013.32 1013.68 1013.39 1011.56 1010.01 1008.91 1008.84 1008.33 1007.75 1007.64 1007.53 1007.84 1007.74 1006.91 1006.40 1005.50 1005.14 1004.98 1004.85 1005.23 1004.37 1002.03 999.30 997.43 995.66 994.21 992.60 991.81 991.35 990.87 990.09 989.30 987.96 987.35 987.17 987.19 987.11 987.02 987.40 989.16 990.76
1016.58 1014.15 1013.15 1012.85 1014.05 1014.66 1013.79 1012.26 1010.53 1009.89 1009.07 1009.12 1008.61 1008.11 1009.38 1007.71 1006.85 1006.69 1006.02 1006.69 1006.33 1005.41 1005.77 1005.91 1004.97 1003.58 1001.14 999.77 1000.18 996.87 993.60 991.85 990.89 989.83 989.38 988.48 987.84 987.58 987.19 987.11 987.23 987.12 987.92 989.37 990.82
1016.61 1015.28 1014.35 1014.12 1014.23 1014.45 1014.54 1013.51 1011.67 1010.51 1009.92 1009.75 1009.05 1008.29 1008.43 1008.22 1007.58 1006.71 1006.54 1006.50 1006.86 1006.76 1005.83 1006.16 1005.24 1004.45 1002.63 1001.00 1000.79 999.48 996.16 991.69 989.69 989.01 988.94 988.05 987.56 987.75 987.25 987.23 987.61 988.05 988.81 989.75 990.89
1017.04 1016.77 1016.14 1015.81 1014.93 1014.85 1014.79 1013.79 1012.43 1011.45 1011.07 1010.06 1009.45 1008.99 1008.53 1008.22 1008.09 1007.08 1006.55 1006.01 1005.57 1005.59 1005.23 1006.14 1005.37 1004.21 1002.59 1001.60 1001.29 1000.14 996.49 992.36 989.50 988.74 988.51 987.76 987.09 988.24 988.61 988.13 988.72 989.05 989.38 990.21 991.12
1018.49 1017.98 1017.50 1016.32 1015.32 1015.46 1015.18 1014.78 1013.78 1012.57 1011.42 1010.70 1009.75 1009.15 1008.32 1007.61 1007.30 1006.91 1006.20 1005.37 1004.93 1004.42 1004.34 1005.14 1004.58 1004.04 1001.28 1000.73 1001.36 998.94 993.61 991.58 988.86 987.94 987.70 987.59 987.27 987.98 989.17 989.43 989.21 989.53 989.82 990.41 991.14
Wind_Speed
16 16 16 17 15 15 14 15 15 17 18 18 18 17 17 19 22 17 13 14 7 8 4 6 14 18 18 19 18 17 14 16 22 21 20 19 17 18 12 1 12 7 7 9 14
17 17 16 16 17 17 17 16 16 15 16 17 19 20 19 19 20 21 19 16 10 12 11 16 17 16 15 17 17 17 15 23 22 20 22 23 21 18 10 6 9 19 15 15 10
16 16 17 17 18 17 17 17 18 16 16 16 18 21 21 21 12 6 6 12 12 15 16 17 21 18 21 21 20 22 22 23 22 24 25 23 24 20 16 15 12 17 14 14 17
18 18 17 18 18 17 17 18 18 18 18 17 17 17 20 12 10 7 7 9 5 9 14 16 20 23 24 25 24 28 28 26 28 25 26 26 26 26 22 12 17 25 19 13 14
18 19 19 19 19 19 18 18 18 18 18 18 16 15 13 12 14 12 8 9 8 11 18 21 24 22 27 25 26 30 26 28 29 28 28 26 27 26 26 23 20 24 20 19 15
16 17 18 19 20 20 19 19 18 16 17 18 16 14 13 23 15 18 14 11 11 13 19 21 23 24 25 28 31 27 28 30 29 30 27 28 28 26 26 25 23 24 21 22 21
17 18 20 20 20 21 20 21 21 20 20 18 16 12 17 23 18 19 18 13 16 16 17 18 20 26 25 31 28 30 31 30 29 28 29 27 32 29 25 27 23 28 22 21 23
17 18 20 21 22 23 24 25 25 22 21 19 15 13 13 16 13 21 21 21 20 20 19 20 20 23 22 27 31 32 32 31 27 30 31 27 36 26 23 23 23 24 21 19 14
16 16 17 20 21 23 23 27 30 30 20 11 9 12 14 10 17 16 15 18 19 18 19 17 20 20 18 21 22 29 24 34 31 29 30 29 34 26 26 27 23 19 20 18 20
19 19 19 20 22 22 23 30 29 18 13 12 13 13 19 13 10 7 6 6 11 18 19 21 14 19 19 19 25 21 31 29 27 25 27 29 31 28 24 27 23 20 15 15 20
22 21 20 22 23 24 20 13 7 5 11 17 13 13 22 17 9 11 12 11 8 14 20 22 17 25 40 29 29 29 32 32 28 25 28 26 27 28 22 20 20 15 16 20 17
22 23 22 23 24 24 15 11 14 10 18 18 26 29 28 26 27 23 16 18 14 18 18 21 28 38 20 31 30 34 30 31 28 27 24 24 27 24 22 22 20 18 18 16 16
23 24 24 24 23 16 11 13 12 13 17 28 34 26 25 24 24 22 20 21 22 22 20 24 36 22 29 29 31 32 30 26 30 25 27 23 25 23 24 22 19 19 19 14 12
24 25 25 23 12 13 8 16 11 13 11 12 13 17 10 8 17 17 19 23 23 26 22 23 26 31 29 34 32 29 27 29 29 23 19 20 18 23 19 21 19 21 19 14 20
24 26 25 13 11 10 14 15 13 8 8 9 3 2 5 13 6 6 13 14 22 21 21 30 26 26 32 37 28 34 23 27 27 25 21 23 16 27 17 19 19 19 18 14 19
24 24 22 3 10 12 16 11 9 6 6 18 16 12 5 8 13 8 5 7 10 19 22 30 26 29 30 26 33 27 27 29 26 19 19 26 20 28 18 20 19 17 18 18 16
25 23 18 12 10 9 10 6 5 6 16 7 16 13 14 14 12 10 9 11 11 6 19 23 27 32 30 29 29 32 23 16 18 18 20 16 21 21 21 20 18 16 15 16 14
26 23 12 12 8 6 7 2 5 18 20 22 17 20 16 17 16 16 10 13 15 15 9 13 19 28 28 33 27 29 26 16 27 16 19 20 25 19 24 20 16 16 16 13 11
27 10 9 5 5 4 3 4 10 15 17 20 21 20 17 13 11 18 8 17 8 10 3 8 16 28 31 29 29 29 30 28 24 21 20 16 18 30 25 18 15 12 14 7 15
9 11 3 5 4 6 4 10 14 13 14 14 18 5 20 21 5 11 7 9 7 4 7 6 15 22 27 30 34 32 19 28 18 24 23 19 21 14 14 16 11 12 12 10 17
7 6 5 1 4 5 6 10 15 16 14 13 13 17 19 17 21 11 10 10 2 7 6 7 8 17 22 26 29 26 28 24 20 19 16 14 14 7 3 5 5 17 15 10 18
6 7 8 3 3 4 9 20 19 19 14 12 10 15 8 19 10 15 20 13 9 8 10 7 5 14 24 23 22 28 25 25 19 22 18 14 15 6 6 4 7 9 16 19 19
7 8 5 6 5 9 15 16 20 14 13 21 15 17 11 8 8 3 15 9 10 6 2 3 9 12 16 16 21 19 29 24 20 11 19 18 14 9 6 6 6 9 14 20 18
7 5 7 6 3 9 16 19 19 14 12 14 19 14 10 17 20 8 16 4 14 13 7 3 8 15 13 7 14 11 20 30 26 17 18 18 10 8 8 7 9 13 21 19 17
5 5 12 7 10 13 13 20 22 16 14 16 15 19 20 19 19 17 20 12 11 11 4 0 8 18 19 23 16 19 31 27 29 22 22 20 18 10 10 8 11 13 15 16 17
6 8 8 13 13 13 8 16 18 19 19 16 13 19 19 19 16 21 22 18 17 6 6 3 5 14 19 14 11 21 35 28 28 28 26 22 16 19 11 6 9 9 13 14 17
6 6 4 10 10 5 3 9 20 20 10 18 21 18 20 19 17 20 22 22 19 18 13 5 5 5 5 5 5 20 24 22 24 27 25 19 5 24 9 6 6 10 11 14 17
Wind_Direction
359 355 354 350 349 350 347 347 341 335 337 333 331 325 328 323 311 281 251 245 220 185 133 246 226 225 213 224 234 233 255 256 254 261 274 282 269 272 283 76 298 324 307 299 295
354 353 349 348 343 343 344 340 333 331 328 327 325 323 328 322 306 272 250 244 163 164 211 220 223 230 226 228 230 223 236 242 253 275 284 275 286 293 257 242 286 311 260 249 251
353 350 347 343 341 341 336 330 326 324 324 323 323 326 319 318 290 275 22 205 169 172 226 228 247 214 231 234 226 229 238 245 254 255 261 274 278 286 267 253 227 223 297 307 318
347 346 345 339 337 333 329 325 320 319 317 317 317 316 310 295 252 116 143 96 97 222 224 241 248 247 225 230 235 234 236 246 255 260 272 279 286 287 285 299 283 295 289 267 274
343 342 339 335 333 329 323 319 315 314 312 312 310 313 312 236 247 158 168 162 183 195 228 230 233 233 242 236 241 240 240 245 255 257 257 267 273 283 282 280 279 278 280 291 269
336 334 332 329 326 322 317 312 308 302 301 301 300 303 268 263 261 263 223 257 246 237 223 223 236 232 245 243 242 246 243 248 252 253 259 263 269 271 274 283 283 280 266 271 279
342 340 337 329 322 317 312 306 300 297 300 291 285 279 267 257 286 296 305 268 256 255 259 264 235 235 243 245 256 254 256 262 254 260 264 270 266 258 266 267 275 275 273 276 272
344 339 335 330 324 318 312 307 301 297 297 286 273 254 255 264 267 254 252 251 255 257 257 267 279 284 265 259 258 251 258 259 253 259 257 259 264 266 271 279 273 280 276 274 265
338 332 327 323 320 313 306 299 296 295 291 264 237 217 273 247 224 248 251 261 259 247 240 240 252 258 266 246 246 246 250 251 250 248 261 255 265 265 253 254 255 264 276 276 278
338 333 327 320 316 308 306 293 275 282 256 223 234 255 234 271 267 193 277 248 233 242 248 222 230 237 237 234 226 221 234 243 259 253 253 247 256 259 255 256 256 245 264 265 269
338 333 329 323 316 312 321 307 337 232 223 268 274 222 292 296 295 238 296 263 234 245 235 221 217 220 219 220 239 236 237 246 252 249 247 252 257 267 274 264 257 270 265 259 255
335 332 327 321 315 310 298 286 325 317 295 279 270 268 268 271 271 268 266 256 248 241 226 229 218 224 230 228 233 245 248 250 260 260 260 263 260 252 255 261 261 242 247 265 283
334 329 324 319 313 293 259 309 336 305 289 278 258 264 262 242 245 250 241 241 242 246 236 225 237 224 232 235 236 236 236 247 259 266 266 271 269 272 270 267 269 267 263 255 271
328 323 322 321 282 315 305 343 312 350 281 282 205 226 228 255 242 247 239 229 235 239 248 250 243 243 226 235 231 243 234 243 250 252 258 258 269 256 262 266 260 266 264 248 247
327 327 322 318 315 323 340 332 333 302 274 111 95 96 193 207 184 211 201 219 235 241 234 248 248 236 239 237 228 245 244 251 248 250 259 254 260 268 271 265 254 254 252 252 248
326 325 331 345 228 299 343 329 312 248 256 14 4 353 346 326 314 323 244 211 237 236 244 256 254 253 248 243 248 245 239 249 258 255 245 242 244 264 256 261 265 263 257 243 254
322 324 317 307 327 2 323 306 293 287 288 351 331 331 323 297 273 240 277 267 239 243 257 247 243 251 249 254 235 239 230 233 232 234 242 241 240 255 265 262 265 276 278 259 254
319 312 273 266 336 19 356 354 291 343 6 353 346 326 308 296 278 275 217 262 250 247 282 266 256 227 236 238 239 225 233 223 221 222 240 240 251 261 252 259 250 246 248 264 215
312 262 243 30 335 355 332 275 8 354 354 348 337 317 324 314 346 297 279 272 348 22 153 321 281 261 226 244 238 232 224 236 246 236 245 261 247 234 244 243 231 210 242 158 124
311 302 318 34 21 271 294 295 321 3 351 341 335 251 318 318 310 331 329 332 293 104 119 300 285 277 272 218 243 239 226 224 223 231 246 238 241 257 184 218 217 207 220 209 137
272 244 124 260 237 297 275 287 339 323 316 320 311 324 321 337 314 290 268 196 165 322 251 246 221 275 286 243 219 227 225 220 243 222 239 249 267 70 84 132 218 193 203 195 142
294 287 113 296 322 281 290 339 302 302 304 311 311 314 266 329 327 310 325 357 181 252 284 311 299 270 271 272 236 238 224 230 220 209 228 246 236 82 149 208 233 257 193 148 145
286 321 122 247 319 327 311 305 305 335 359 320 323 316 348 307 284 348 294 303 198 245 285 16 235 266 251 259 266 258 226 233 237 230 216 234 246 157 169 211 237 271 165 138 145
286 331 328 351 18 307 316 313 310 326 322 339 314 327 349 323 324 300 297 8 329 306 39 310 258 263 272 316 334 323 269 228 223 206 226 223 208 166 198 191 202 227 125 138 150
275 291 337 306 312 316 309 297 306 322 343 337 314 321 341 327 322 312 318 327 287 272 293 46 286 297 287 268 277 300 291 253 222 196 219 229 222 196 181 134 95 108 130 142 150
331 346 343 303 309 324 313 306 317 337 335 310 325 321 318 312 310 304 305 300 306 236 275 280 282 276 272 256 264 293 283 275 219 219 213 237 147 86 62 13 125 143 148 151 154
9 302 298 291 308 305 304 321 309 316 304 320 309 310 305 311 311 293 278 278 276 282 277 282 275 302 271 164 22 283 251 252 239 203 204 215 252 130 196 261 92 141 151 161 157